Lapse_Rate
7.0 6.2 6.4 7.6 7.6 7.3 7.0 6.6 6.3 6.7 7.3 6.6 6.4 6.4 6.9 7.3 6.8 7.3 7.5 7.5 7.5 7.8 8.2 8.2 8.0 7.9 7.5 7.7 7.4 7.2 7.1 7.0 6.3 6.0 6.2 6.1 6.1 6.0 6.2 6.1 6.1 5.8 5.5 5.2
6.4 6.1 7.1 7.1 7.0 6.7 6.3 6.2 6.3 6.8 7.6 6.9 6.5 5.9 6.0 6.6 7.2 7.3 7.4 7.6 7.8 7.9 8.2 8.2 7.6 7.7 7.7 7.4 7.4 7.4 7.0 6.5 6.2 6.0 6.1 6.3 6.1 6.2 6.1 6.1 6.1 5.9 5.6 5.2
6.5 6.5 6.5 6.6 6.6 6.6 6.6 6.2 6.4 6.4 6.9 6.6 6.1 5.4 5.7 6.5 7.0 7.4 7.4 7.5 7.8 8.1 8.3 8.0 7.9 7.8 7.6 7.4 7.3 6.8 6.5 6.3 6.3 6.1 6.3 6.5 6.3 6.1 6.1 6.2 6.2 5.8 5.7 5.2
5.5 6.3 6.6 6.2 6.3 6.8 6.5 7.1 6.8 6.5 6.3 5.4 6.1 4.4 5.0 5.9 6.8 7.3 7.7 7.7 7.8 8.1 8.1 7.8 7.5 7.5 7.3 7.0 6.9 6.8 6.7 6.7 6.5 6.5 6.8 6.5 6.3 6.2 6.3 6.4 6.2 5.9 5.9 5.2
6.6 6.6 6.3 6.5 6.9 6.9 6.6 6.8 6.6 6.2 5.6 5.2 4.9 5.1 4.4 5.3 6.1 7.1 7.6 7.5 7.7 8.3 8.1 7.6 7.1 7.1 6.8 6.7 6.9 6.8 6.8 6.7 6.8 6.8 6.8 6.7 6.8 6.6 6.4 6.2 6.3 6.0 5.7 5.1
6.8 6.8 6.5 6.8 6.7 6.8 6.9 6.7 6.5 6.5 6.1 4.7 5.1 5.7 4.4 5.8 6.4 6.8 6.9 7.3 7.4 8.0 8.0 7.4 6.9 6.9 6.6 6.3 6.6 6.7 6.8 6.7 6.7 6.8 6.8 6.7 6.5 6.4 6.2 6.0 5.8 5.8 5.3 4.8
7.3 7.0 7.3 7.3 6.8 6.5 6.8 7.0 6.4 5.2 4.4 4.5 6.8 6.2 5.2 6.4 6.7 7.0 7.0 7.0 7.3 7.5 7.4 7.0 7.3 7.3 6.9 6.6 6.6 6.5 6.6 6.6 6.6 6.5 6.4 6.4 6.2 6.1 6.0 5.9 5.6 5.4 4.9 4.8
6.6 6.7 7.8 7.9 8.1 8.4 7.4 7.1 6.5 5.7 5.1 6.5 6.9 5.5 5.9 6.8 7.1 7.3 7.3 7.1 7.3 7.5 7.3 7.1 7.1 7.4 8.1 7.8 7.5 7.3 6.9 6.5 6.4 6.2 6.2 5.9 5.7 5.8 5.7 5.7 5.6 5.8 5.5 4.9
7.3 7.3 7.5 7.6 7.4 7.8 7.1 6.3 7.6 6.7 7.2 5.5 6.3 6.4 6.4 6.9 7.1 7.4 7.5 7.8 7.8 7.7 7.5 7.3 7.4 7.7 7.5 8.3 7.9 7.4 6.8 6.6 6.4 6.5 6.2 5.9 5.8 5.7 5.7 5.6 5.7 5.6 5.6 5.1
7.4 7.1 7.3 7.3 7.3 6.9 6.7 6.9 6.4 6.1 5.5 4.8 6.4 6.1 6.1 6.4 7.1 7.8 7.7 7.9 8.1 8.0 7.8 7.8 7.8 7.8 7.7 7.7 7.8 7.5 7.0 6.7 6.7 6.5 6.2 5.8 5.8 5.8 5.7 5.7 5.7 5.3 5.2 4.9
7.0 6.8 7.1 7.3 6.7 7.0 7.2 6.8 6.6 6.8 7.2 6.9 6.7 6.2 6.3 6.6 6.9 7.8 8.1 8.4 8.4 8.4 8.5 8.2 8.3 7.9 7.9 7.8 7.3 7.2 7.0 6.9 6.7 6.3 6.1 5.9 5.9 5.8 5.8 5.7 5.6 5.3 5.0 4.6
6.8 6.3 6.0 6.2 6.7 7.1 7.0 6.9 7.0 6.7 6.6 6.7 7.1 7.0 6.2 6.3 6.9 7.4 8.0 8.1 8.4 8.6 8.7 8.5 8.3 8.2 8.0 7.5 6.9 7.0 7.3 6.9 6.4 6.2 6.0 6.0 5.7 5.7 5.7 5.7 5.5 5.1 4.8 4.5
6.3 5.6 5.4 5.6 6.0 6.1 6.7 7.2 6.9 7.0 7.0 6.7 6.4 5.8 6.1 6.4 6.2 6.7 7.1 7.3 7.7 7.7 8.1 8.2 7.6 7.4 7.5 7.4 7.0 6.7 6.4 6.3 6.3 6.4 6.3 6.0 5.8 5.7 5.6 5.5 5.3 4.9 4.7 4.5
6.4 6.1 6.1 6.7 6.6 7.2 7.1 7.0 6.6 6.5 6.4 6.0 5.9 5.6 5.6 6.2 6.3 6.6 6.9 7.0 7.2 7.2 7.3 7.2 7.2 7.1 7.1 6.9 6.5 6.2 6.1 6.3 6.7 6.8 6.7 6.4 6.1 5.7 5.5 5.2 4.9 4.9 4.7 4.7
6.2 6.1 6.1 6.5 6.3 6.6 6.1 6.1 6.2 6.4 5.9 5.1 6.1 5.9 6.3 7.1 7.2 7.1 6.8 6.7 6.7 6.8 6.9 7.1 7.0 6.5 6.7 6.8 6.5 6.5 6.7 6.7 6.6 6.5 6.6 6.7 6.4 6.1 5.9 5.5 5.3 5.3 5.0 5.0
6.0 5.9 6.1 6.2 6.3 6.8 6.5 6.9 6.9 6.6 6.5 6.2 5.8 5.8 6.6 7.3 7.9 7.0 7.3 7.8 7.3 7.3 7.2 7.0 6.6 7.0 7.1 6.7 6.3 6.8 7.1 7.1 6.8 6.6 6.7 6.7 6.8 6.8 6.5 6.2 5.8 5.5 5.4 5.3
6.5 6.3 6.0 6.0 5.9 6.0 6.2 5.8 6.7 7.2 6.8 5.9 5.6 6.9 7.8 7.7 8.0 7.8 7.8 7.6 7.7 8.1 8.0 7.7 7.8 7.7 6.9 6.3 6.2 6.5 7.0 6.6 6.5 6.6 6.6 6.6 6.7 6.9 6.7 6.3 6.1 5.9 5.7 5.6
5.7 6.2 6.3 6.6 6.7 6.8 5.7 6.8 7.4 7.6 7.9 7.9 7.7 7.8 8.2 8.1 7.8 7.8 7.6 7.8 8.0 8.2 7.9 7.7 7.5 6.8 7.0 6.7 6.6 6.4 6.4 6.1 6.2 6.7 7.0 6.8 6.8 6.8 6.7 6.6 6.6 6.6 6.5 6.2
6.1 6.1 6.2 6.7 7.0 7.1 7.1 7.1 7.4 7.7 8.3 8.4 7.6 7.0 6.7 6.4 6.7 6.8 6.5 6.5 6.5 6.5 6.7 6.7 6.8 6.7 6.9 7.2 6.5 6.6 6.4 6.1 6.4 6.7 6.6 6.6 6.7 6.6 6.6 6.6 6.6 6.6 6.7 6.8
6.7 6.5 6.8 7.0 7.3 7.4 7.3 7.9 7.8 7.8 7.2 6.9 6.5 6.3 6.2 6.5 6.0 6.4 6.3 5.9 6.1 6.1 6.7 6.6 6.3 6.6 6.8 7.1 7.4 7.6 6.8 6.5 6.9 7.0 6.9 6.9 6.8 6.7 6.6 6.6 6.3 6.1 6.0 6.0
6.0 6.3 6.6 6.6 7.2 7.4 6.6 6.6 6.8 6.8 5.7 5.9 5.0 5.7 5.8 5.6 5.2 5.6 6.0 6.2 6.0 6.2 6.8 7.1 6.9 6.9 7.1 7.2 7.1 7.1 7.1 7.0 6.9 7.2 7.3 7.2 7.1 7.0 7.0 7.0 6.7 5.6 5.7 5.9
5.7 6.1 6.4 7.3 7.5 7.6 6.3 5.8 5.4 4.4 3.8 4.0 4.8 4.9 4.5 4.4 4.8 4.9 5.7 5.9 6.2 6.4 6.5 6.8 6.8 6.8 6.8 6.9 6.6 6.8 7.0 7.0 7.1 7.1 7.3 7.4 7.2 6.8 6.9 6.7 6.2 5.6 5.4 5.4
5.2 6.1 4.7 4.8 5.3 6.8 4.9 4.7 3.9 3.8 3.5 3.5 3.4 3.3 4.1 4.1 4.5 4.9 4.4 4.9 5.5 5.5 6.2 6.6 6.8 6.8 6.6 6.6 7.0 7.1 6.9 6.5 6.4 6.2 7.0 7.0 6.7 6.7 6.8 6.7 6.3 5.7 5.4 5.6
5.5 5.5 5.9 5.5 5.5 5.4 5.7 4.4 3.9 3.7 3.9 3.3 2.9 2.9 3.1 3.9 4.4 5.0 5.1 4.8 4.8 5.5 5.5 5.7 5.7 6.1 6.7 6.2 6.6 6.8 7.2 7.1 6.4 6.3 6.4 6.4 6.1 6.1 6.4 6.4 6.2 6.0 5.7 5.9
5.5 5.5 6.0 6.0 5.8 5.5 5.2 4.8 5.0 4.8 3.7 3.3 3.5 3.3 3.4 3.7 4.4 4.5 4.5 5.1 5.4 5.7 6.4 6.2 5.7 5.5 5.9 6.0 5.9 5.8 5.9 6.4 6.6 6.2 5.7 5.5 5.9 6.2 6.2 6.2 6.1 6.1 5.9 5.9
6.9 6.4 6.1 6.1 5.9 5.3 5.5 5.6 5.0 4.3 3.9 3.5 3.4 3.4 3.6 3.6 3.6 3.7 4.0 4.4 4.4 5.4 5.6 5.5 5.9 6.5 6.4 6.3 5.9 6.5 6.6 6.8 6.4 6.8 6.5 6.4 6.2 6.0 6.2 6.0 6.1 6.3 6.2 5.3
Wind_Speed
6 5 10 23 15 12 5 6 7 9 8 7 13 17 21 18 8 15 17 15 14 17 22 10 16 17 17 16 17 19 18 16 13 9 8 6 8 5 4 10 16 18 17 15
3 12 18 7 8 12 12 18 19 13 15 10 10 18 13 13 17 13 18 18 19 19 9 9 11 15 19 20 19 19 19 19 15 12 10 4 4 3 3 7 12 17 19 17
19 8 16 14 9 8 17 14 18 15 7 6 8 11 9 12 16 14 14 18 17 22 13 10 10 17 16 19 21 20 20 19 17 12 8 3 4 2 3 4 5 7 16 17
11 15 14 7 8 14 23 9 12 9 3 14 6 19 7 8 16 14 18 16 19 20 9 8 11 14 19 19 18 19 19 19 15 16 14 15 9 10 7 8 6 6 17 16
10 3 6 13 23 9 19 4 9 3 5 5 6 7 4 8 10 12 15 16 20 13 11 11 16 21 20 17 18 18 19 18 16 17 17 14 11 8 3 4 9 10 7 14
12 2 4 7 1 5 3 2 2 2 2 11 9 11 13 7 13 7 16 15 18 11 10 9 9 9 12 10 13 14 18 18 16 17 18 19 16 10 7 9 9 8 7 6
4 13 10 5 3 1 3 5 3 3 1 11 12 11 25 8 8 14 17 18 18 8 8 9 11 12 11 14 14 14 16 17 16 18 17 17 16 15 14 12 11 11 8 7
3 13 10 7 19 9 9 14 7 8 6 13 4 8 7 14 16 10 12 14 8 9 9 10 12 12 13 15 15 16 16 16 16 17 18 15 15 11 10 12 9 10 10 9
4 8 2 1 0 10 5 7 12 3 2 2 12 14 9 6 9 10 16 10 8 9 9 10 9 10 11 12 15 18 16 15 15 18 15 16 14 16 14 13 10 9 7 7
8 10 3 1 2 3 3 0 2 3 4 7 15 8 15 6 17 17 10 11 10 8 8 8 9 11 10 10 13 13 13 16 14 14 15 14 14 15 12 11 13 11 9 8
3 6 7 3 8 8 1 4 5 3 4 13 17 15 7 8 7 10 11 10 9 9 10 10 9 8 10 9 12 12 13 15 15 15 15 16 14 12 10 12 12 13 10 10
3 1 3 11 7 4 5 12 17 13 19 3 5 15 4 12 9 5 3 5 6 7 8 8 9 8 10 13 12 16 16 15 17 15 14 15 11 11 12 12 11 11 13 10
5 3 7 7 10 2 7 6 10 7 3 17 14 20 3 13 11 8 8 8 7 6 7 7 7 10 13 12 12 13 14 17 15 13 14 13 13 14 14 12 11 11 11 10
10 10 13 19 19 3 4 11 12 10 10 18 21 30 34 32 30 26 22 12 11 10 9 9 8 8 9 11 13 14 14 14 13 14 14 15 15 15 13 12 12 12 11 12
11 11 18 27 30 27 31 32 31 25 21 13 28 20 29 37 24 24 20 17 11 10 8 9 10 9 11 11 11 11 12 12 13 14 15 15 14 13 13 14 14 12 12 11
10 16 15 20 26 30 33 33 33 32 36 28 34 34 34 36 35 30 33 26 17 18 19 15 11 12 12 11 13 12 11 12 14 16 17 14 15 15 16 16 14 14 12 11
16 10 12 25 22 25 20 32 37 36 29 22 24 33 37 35 31 35 32 18 17 19 18 10 13 16 14 11 10 11 13 9 12 12 11 13 14 14 14 14 14 13 12 11
15 12 9 15 13 21 18 18 28 33 31 30 30 33 32 31 32 26 21 21 22 18 11 10 10 11 10 8 9 6 9 11 11 10 11 12 14 14 13 14 15 14 12 11
22 20 11 11 13 13 5 9 14 17 27 25 25 25 25 26 27 27 15 22 21 20 16 15 12 11 8 9 8 8 8 10 11 12 13 14 16 16 16 16 14 12 12 12
13 16 16 15 21 21 15 12 19 19 20 25 14 18 19 19 7 6 22 18 19 20 13 9 6 5 6 7 8 10 9 11 13 16 15 14 14 14 14 14 13 11 10 10
8 9 17 17 19 8 11 17 13 7 11 24 11 11 14 9 6 13 17 20 15 10 10 9 7 7 5 4 6 8 10 13 8 7 11 13 14 15 15 14 11 11 10 10
5 4 9 7 15 24 23 8 9 15 19 19 14 20 17 13 13 13 17 19 21 18 15 8 6 4 4 5 3 5 9 6 8 10 11 12 13 12 12 16 12 14 12 10
7 3 5 6 10 26 4 17 17 10 10 13 13 16 17 20 18 17 15 16 17 18 14 7 3 6 4 4 2 3 1 5 9 10 10 9 10 11 13 15 14 10 11 10
6 8 7 14 3 23 24 13 11 10 13 12 10 13 13 17 18 19 16 15 14 14 12 8 4 7 8 9 10 11 10 10 11 10 10 10 11 11 12 10 12 12 11 9
11 13 8 17 18 18 15 16 15 17 16 11 12 16 17 14 15 16 18 18 15 15 13 8 11 12 15 6 10 10 12 14 14 12 10 10 9 11 11 11 12 12 12 14
14 17 12 18 21 13 19 15 14 9 12 15 15 16 16 16 18 19 19 18 16 15 14 13 11 11 15 8 10 12 14 17 17 16 15 16 14 12 11 10 10 16 18 21
Wind_Direction
205 151 209 224 209 232 232 261 239 265 252 180 228 235 246 260 218 245 255 259 249 240 250 208 204 190 180 177 170 174 168 170 166 171 174 175 189 182 184 181 175 172 173 175
249 221 227 239 205 230 244 259 268 278 264 202 246 245 243 255 253 223 237 245 247 252 253 220 192 182 180 176 174 172 176 173 179 178 181 170 151 182 167 178 176 177 175 180
226 228 220 225 232 262 244 244 260 265 301 250 296 267 232 248 248 249 238 243 255 248 241 224 181 187 176 176 177 178 178 178 180 172 158 111 107 93 161 192 179 189 179 182
249 241 238 203 223 210 263 225 244 244 236 270 151 291 231 242 248 247 252 246 242 248 223 207 184 182 185 187 177 176 177 178 179 170 176 185 193 193 198 187 179 175 183 183
231 235 220 234 235 190 257 223 239 240 240 313 176 285 231 187 241 250 249 245 254 241 210 200 189 191 190 177 177 176 176 178 179 180 185 191 200 196 152 147 168 182 184 185
249 139 232 214 125 189 123 74 355 31 80 265 174 202 261 192 219 244 246 249 256 240 202 201 190 168 174 165 173 174 176 183 181 181 189 195 195 179 166 179 185 187 186 187
300 235 214 153 183 222 155 100 295 313 346 251 186 210 253 291 250 220 232 237 239 179 171 167 164 174 168 172 175 178 182 188 186 188 193 195 197 188 192 186 188 183 184 190
244 290 160 186 208 193 195 202 184 206 233 277 136 245 256 214 230 230 237 229 195 184 191 183 182 181 181 182 179 182 187 191 187 190 197 196 195 193 197 190 187 190 191 190
231 256 300 92 271 168 187 182 228 299 126 27 265 270 290 241 247 248 239 237 205 206 193 196 188 184 180 178 186 190 191 196 193 196 194 198 193 196 198 189 183 184 177 174
229 257 198 170 237 266 160 81 109 236 209 246 261 262 265 273 270 258 265 214 220 206 207 213 202 190 187 188 191 194 197 198 195 196 201 200 197 200 192 175 184 177 169 160
323 266 257 157 204 183 86 247 234 293 193 250 263 271 217 242 248 258 246 219 196 212 216 210 212 195 192 190 185 189 193 198 203 199 196 197 197 192 177 184 186 176 159 158
155 262 296 250 298 272 254 228 228 241 251 241 270 262 185 252 233 186 311 290 230 216 214 211 209 182 195 202 197 198 201 200 208 202 195 197 183 174 182 187 176 160 163 161
165 160 243 287 289 231 217 222 230 253 281 249 252 260 165 255 272 308 288 277 270 240 247 225 202 204 211 209 202 205 202 208 202 193 190 187 184 182 187 181 167 161 155 158
180 198 232 246 236 197 237 259 242 233 253 258 251 263 277 265 263 272 273 240 235 245 228 224 224 215 218 215 210 210 212 205 193 190 188 189 189 187 179 165 161 162 162 158
184 232 221 235 241 244 251 255 255 250 240 238 260 252 263 270 270 273 275 260 254 254 232 221 220 223 230 224 220 215 210 193 183 187 190 193 182 176 164 162 161 159 162 163
193 243 233 231 227 233 244 245 251 254 255 248 246 257 254 268 275 273 264 262 263 256 249 246 241 232 242 219 221 212 203 189 180 191 194 179 168 166 173 168 162 158 161 157
218 210 222 249 233 242 246 239 240 245 247 245 244 244 256 265 261 261 272 281 263 256 254 233 238 237 234 232 212 205 207 172 182 188 183 173 168 167 171 163 159 163 164 158
276 263 245 247 237 231 235 235 237 244 247 249 246 248 249 257 270 272 277 268 271 266 248 240 238 234 222 220 210 160 150 164 171 170 167 165 162 162 166 163 168 162 159 162
230 241 251 259 252 271 340 235 218 221 244 256 274 265 271 276 271 280 321 339 303 289 273 258 245 230 230 207 182 159 156 160 160 172 171 168 165 165 172 173 168 164 159 155
259 246 246 248 254 258 263 272 268 247 260 360 9 4 354 344 304 307 346 341 337 335 314 310 278 231 205 208 158 149 159 162 184 184 178 166 163 165 166 164 165 164 164 157
302 286 254 260 269 267 12 360 304 241 357 335 326 360 344 326 286 300 316 324 329 322 330 341 350 317 296 147 145 154 159 192 178 154 157 162 167 165 163 156 157 153 151 148
279 297 284 311 262 254 11 353 357 321 302 306 316 327 312 294 289 286 292 305 311 316 324 332 322 311 343 334 315 166 192 140 132 148 163 168 165 162 155 154 153 153 152 153
285 343 319 321 312 308 314 310 302 304 305 316 310 315 320 308 315 315 304 308 303 303 308 308 225 284 237 212 220 212 9 135 139 148 161 164 161 162 162 156 153 152 155 159
275 282 293 315 281 296 302 304 304 15 350 333 321 310 301 311 313 307 306 304 303 301 288 283 239 243 236 209 196 213 173 157 155 162 167 160 168 167 165 163 161 160 165 164
266 296 274 283 282 291 292 312 337 329 317 321 314 306 300 306 302 302 299 299 292 290 289 273 279 275 269 206 208 190 173 163 164 163 167 170 177 179 172 173 169 166 176 173
260 259 268 275 291 302 297 315 317 350 335 319 306 307 309 310 306 305 298 295 296 297 291 290 283 271 271 246 219 199 187 181 180 178 179 180 176 180 180 169 160 175 168 170